CAPE
3 3 6 18 28 25 7 0 0 0 0 12 1 0 1 2 20 2 0 0 1 0 0 0 0 2 1 1 0 3 0 1 0 0 0 0 0 0 0 0 0 0 0 0 0 0 0 0 0 0 0 0 0 0
6 6 2 4 15 23 22 16 0 0 0 0 8 7 0 3 16 2 1 4 1 0 0 0 0 0 0 0 0 1 0 0 0 0 0 0 0 0 0 0 0 0 0 1 0 0 0 0 0 0 0 0 0 0
1 2 4 3 14 9 17 20 29 0 0 0 0 17 15 11 8 7 0 5 0 1 0 1 0 0 0 0 0 0 0 0 1 0 0 0 0 0 0 0 0 0 0 0 0 0 0 0 0 0 0 0 0 0
2 2 3 3 2 11 6 8 38 23 19 2 4 9 12 13 16 9 1 4 1 1 1 0 0 0 0 0 0 0 0 0 0 0 0 0 0 0 0 0 0 0 0 0 0 0 0 0 0 0 0 0 0 0
2 2 2 2 5 4 23 5 15 27 15 0 0 9 7 13 5 0 0 2 0 0 0 2 0 0 0 0 0 0 0 0 0 0 0 0 1 0 0 0 0 0 0 0 0 1 0 0 0 0 0 0 0 0
7 3 2 3 2 0 7 16 6 2 12 2 0 0 19 22 3 0 0 0 0 1 0 0 0 1 1 0 0 1 7 1 4 1 1 2 0 1 0 1 0 0 0 0 0 0 0 0 0 0 0 0 0 0
8 8 3 3 2 6 11 20 10 26 48 19 51 4 1 1 0 1 1 0 0 0 0 0 0 1 0 0 1 1 0 0 0 0 1 2 1 0 0 0 0 0 0 0 0 0 0 0 0 0 0 0 0 0
5 6 4 1 1 1 4 24 7 10 12 14 7 8 6 1 0 0 1 0 0 0 0 0 0 0 0 1 2 0 0 0 1 1 1 1 0 1 0 0 0 0 0 0 0 0 0 0 0 0 0 0 0 0
3 3 2 1 0 0 4 13 11 0 4 0 1 0 0 0 0 0 0 0 0 0 0 0 0 0 0 0 1 0 1 0 0 2 1 0 0 0 0 0 0 0 0 0 0 0 0 0 0 0 0 0 0 0
3 1 1 0 0 0 0 4 2 0 0 0 0 0 0 0 14 0 0 0 0 0 0 0 0 0 0 1 0 0 2 0 2 0 0 2 1 0 0 0 0 0 0 0 0 0 0 0 0 0 0 0 0 0
2 0 1 0 0 0 0 6 17 11 0 0 0 0 0 0 0 0 0 0 0 0 1 0 0 0 0 1 0 1 1 0 0 0 1 0 0 0 0 0 0 0 0 0 0 0 0 0 0 0 0 0 0 0
4 0 0 0 0 0 0 0 4 0 0 0 0 0 0 1 0 0 0 0 0 0 1 1 0 0 0 0 0 0 0 0 0 0 1 0 0 1 0 0 0 0 0 0 0 0 0 0 0 0 0 0 0 0
7 0 0 0 0 0 0 0 0 5 2 0 0 0 1 0 0 0 0 0 0 1 2 1 0 1 0 0 0 0 0 0 0 0 0 0 0 0 0 0 0 0 0 0 0 0 0 0 0 0 0 0 0 0
9 0 0 0 0 0 0 0 0 1 0 0 0 0 0 0 0 0 0 0 0 1 1 1 1 0 1 0 0 0 0 0 0 0 0 0 0 0 0 0 0 0 0 0 0 0 0 0 0 0 0 0 0 0
15 2 0 0 0 1 0 0 0 0 0 0 0 0 0 0 0 0 0 0 0 1 1 0 0 0 0 0 0 0 0 0 0 0 0 0 0 0 0 0 0 0 0 0 0 0 0 0 0 0 0 0 0 0
7 0 0 0 1 1 0 0 0 0 0 0 0 0 0 0 0 0 0 0 0 0 0 0 0 0 0 0 0 0 0 0 0 0 0 0 0 0 0 0 0 0 0 0 0 0 0 0 0 0 0 0 0 0
1 0 2 2 2 0 0 0 0 0 0 0 0 0 1 0 0 0 0 0 0 0 0 0 0 0 0 0 0 0 0 0 0 0 0 0 0 0 0 0 0 0 0 0 0 0 0 0 0 0 0 0 0 0
1 3 2 0 0 0 0 0 0 0 0 0 0 0 0 0 0 0 0 0 0 0 0 0 0 0 0 0 0 0 0 0 0 0 0 0 0 0 0 0 0 0 0 0 0 0 0 0 0 0 0 0 0 0
0 0 0 0 0 0 0 0 0 0 0 0 0 0 0 0 0 0 0 0 0 0 0 0 0 0 0 0 0 0 0 0 0 0 0 0 0 0 0 0 0 0 0 0 0 0 0 0 0 0 0 0 0 0
0 0 0 0 0 0 0 0 0 0 0 0 0 0 0 0 0 0 0 0 0 0 0 0 0 0 0 0 0 0 0 0 0 0 0 0 0 0 0 0 0 0 0 0 0 0 0 0 0 0 0 0 0 0
0 0 0 0 0 0 0 0 0 0 0 0 0 0 0 0 0 0 0 0 0 0 0 0 0 0 0 0 0 0 0 0 0 0 0 0 0 0 0 0 0 0 0 0 0 0 0 0 0 0 0 0 0 0
0 0 0 0 0 0 0 0 0 0 0 0 0 0 0 0 0 0 0 0 0 0 0 0 0 0 0 0 0 0 0 0 0 0 0 0 0 0 0 0 0 0 0 0 0 0 0 0 0 0 0 0 0 0
0 0 0 0 0 0 0 0 0 0 0 0 0 0 0 0 0 0 0 0 0 0 0 0 0 0 0 0 0 0 0 0 0 0 0 0 0 0 0 0 0 0 0 0 0 0 0 0 0 0 0 0 0 0
0 0 0 0 0 0 0 0 0 0 0 0 0 0 0 0 0 0 0 0 0 0 0 0 0 0 0 0 0 0 0 0 0 0 0 0 0 0 0 0 0 0 0 0 0 0 0 0 0 0 0 0 0 0
0 0 0 0 0 0 0 0 0 0 0 0 0 0 0 0 0 0 0 0 0 0 0 0 0 0 0 0 0 0 0 0 0 0 0 0 0 0 0 0 0 0 0 0 0 0 0 0 0 0 0 0 0 0
0 0 0 0 0 0 0 0 0 0 0 0 0 0 0 0 0 0 0 0 0 0 0 0 0 0 0 0 0 0 0 0 0 0 0 0 0 0 0 0 0 0 0 0 0 0 0 0 0 0 0 0 0 0
0 0 0 0 0 0 0 0 0 0 0 0 0 0 0 0 0 0 0 0 0 0 0 0 0 0 0 0 0 0 0 0 0 0 0 0 0 0 0 0 0 0 0 0 0 0 0 0 0 0 0 0 0 0
0 0 0 0 0 0 0 0 0 0 0 0 0 0 0 0 0 0 0 0 0 0 0 0 0 0 0 0 0 0 0 0 0 0 0 0 0 0 0 0 0 0 0 0 0 0 0 0 0 0 0 0 0 0
0 0 0 0 0 0 0 0 0 0 0 0 0 0 0 0 0 0 0 0 0 0 0 0 0 0 0 0 0 0 0 0 0 0 0 0 0 0 0 0 0 0 0 0 0 0 0 0 0 0 0 0 0 0
0 0 0 0 0 0 0 0 0 0 0 0 0 0 0 0 0 0 0 0 0 0 0 0 0 0 0 0 0 0 0 0 0 0 0 0 0 0 0 0 0 0 0 0 0 0 0 0 0 0 0 0 0 0
0 0 0 0 0 0 0 0 0 0 0 0 0 0 0 0 0 0 0 0 0 0 0 0 0 0 0 0 0 0 0 0 0 0 0 0 0 0 0 0 0 0 0 0 0 0 0 0 0 0 0 0 0 0
0 0 0 0 0 0 0 0 0 0 0 0 0 0 0 0 0 0 0 0 0 0 0 0 0 0 0 0 0 0 0 0 0 0 0 0 0 0 0 0 0 0 0 0 0 0 0 0 0 0 0 0 0 0
0 0 0 0 0 0 0 0 0 0 0 0 0 0 0 0 0 0 0 0 0 0 0 0 0 0 0 0 0 0 0 0 0 0 0 0 3 2 2 0 0 0 0 0 0 0 0 0 0 0 0 0 0 0
CIN
-0 -0 -1 -0 -0 -0 -0 -0 -0 -0 -0 -1 -3 -0 -6 -3 -0 -1 -1 -0 -0 -0 -0 -0 -0 -0 -0 -0 -0 -0 -0 -0 -0 -0 -0 -0 -0 -0 -0 -0 -0 -0 -0 -0 -0 -0 -0 -0 -0 -0 -0 -0 -0 -0
-1 -0 -0 -0 -0 -0 -0 -0 -0 -0 -0 -0 -1 -4 -0 -1 -0 -6 -0 -3 -2 -0 -0 -0 -0 -0 -0 -0 -0 -0 -0 -0 -0 -0 -0 -0 -0 -0 -0 -0 -0 -0 -0 -4 -0 -0 -0 -0 -0 -0 -0 -0 -0 -0
-0 -0 -0 -1 -0 -0 -16 -3 -0 -0 -0 -0 -0 -5 -2 -0 -0 -1 -0 -1 -0 -0 -0 -0 -0 -0 -0 -0 -0 -0 -0 -0 -0 -0 -0 -0 -0 -0 -0 -0 -0 -0 -0 -0 -0 -0 -0 -0 -0 -0 -0 -0 -0 -0
-0 -0 -0 -0 -1 -0 -0 -19 -0 -1 -0 -1 -1 -4 -2 -0 -0 -0 -0 -0 -0 -0 -0 -0 -0 -0 -0 -0 -0 -0 -0 -0 -0 -0 -0 -0 -0 -0 -0 -0 -0 -0 -0 -0 -0 -0 -0 -0 -0 -0 -0 -0 -0 -0
-0 -0 -0 -0 -0 -0 -0 -0 -20 -11 -6 -0 -0 -2 -1 -0 -1 -0 -0 -0 -0 -0 -0 -0 -0 -0 -0 -0 -0 -0 -0 -0 -0 -0 -0 -0 -0 -0 -0 -0 -0 -0 -0 -0 -0 -4 -0 -0 -0 -0 -0 -0 -0 -0
-1 -0 -0 -0 -1 -0 -1 -0 -0 -35 -14 -7 -0 -0 -2 -0 -4 -0 -0 -1 -1 -1 -0 -0 -0 -0 -0 -0 -0 -0 -0 -2 -6 -7 -0 -0 -0 -4 -0 -0 -0 -0 -0 -0 -0 -0 -0 -0 -0 -0 -0 -0 -0 -0
-0 -0 -0 -0 -1 -0 -1 -0 -0 -8 -6 -12 -7 -15 -0 -0 -0 -0 -0 -0 -0 -0 -0 -0 -0 -0 -0 -0 -0 -0 -0 -5 -4 -0 -5 -0 -0 -0 -0 -0 -0 -0 -0 -0 -0 -0 -0 -0 -0 -0 -0 -0 -0 -0
-0 -0 -0 -0 -0 -0 -0 -0 -0 -0 -0 -0 -1 -0 -0 -0 -0 -0 -0 -0 -0 -0 -0 -0 -0 -0 -0 -0 -0 -0 -1 -2 -0 -0 -0 -0 -0 -0 -0 -0 -0 -0 -0 -0 -0 -0 -0 -0 -0 -0 -0 -0 -0 -0
-0 -0 -0 -0 -0 -0 -0 -0 -0 -0 -1 -0 -0 -0 -0 -0 -0 -0 -0 -0 -0 -0 -0 -0 -0 -0 -1 -0 -0 -0 -0 -1 -0 -0 -0 -0 -0 -0 -0 -0 -0 -0 -0 -0 -0 -0 -0 -0 -0 -0 -0 -0 -0 -0
-0 -0 -0 -0 -0 -0 -0 -1 -0 -1 -3 -0 -0 -0 -0 -0 -0 -0 -0 -1 -0 -0 -0 -0 -0 -0 -1 -0 -0 -0 -0 -0 -0 -0 -0 -0 -1 -0 -0 -0 -0 -0 -0 -0 -0 -0 -0 -0 -0 -0 -0 -0 -0 -0
-0 -0 -0 -0 -0 -0 -0 -0 -3 -5 -0 -0 -0 -0 -2 -0 -0 -0 -0 -0 -0 -0 -0 -0 -0 -0 -0 -0 -0 -0 -0 -0 -0 -0 -0 -0 -0 -0 -0 -0 -0 -0 -0 -0 -0 -0 -0 -0 -0 -0 -0 -0 -0 -0
-0 -0 -0 -0 -0 -0 -0 -0 -0 -1 -3 -0 -0 -2 -7 -2 -0 -0 -0 -0 -0 -0 -0 -0 -0 -0 -0 -0 -0 -0 -0 -0 -0 -0 -0 -0 -0 -0 -0 -0 -0 -0 -0 -0 -0 -0 -0 -0 -0 -0 -0 -0 -0 -0
-1 -0 -0 -0 -0 -0 -0 -0 -0 -0 -0 -0 -0 -0 -0 -0 -0 -0 -0 -0 -0 -0 -0 -0 -0 -0 -0 -0 -0 -0 -0 -0 -0 -0 -0 -0 -0 -0 -0 -0 -0 -0 -0 -0 -0 -0 -0 -0 -0 -0 -0 -0 -0 -0
-1 -0 -0 -0 -0 -0 -0 -0 -0 -0 -0 -0 -0 -0 -0 -0 -0 -0 -0 -0 -0 -0 -0 -0 -0 -0 -0 -0 -0 -0 -0 -0 -0 -0 -0 -0 -0 -0 -0 -0 -0 -0 -0 -0 -0 -0 -0 -0 -0 -0 -0 -0 -0 -0
-0 -0 -0 -0 -0 -0 -0 -0 -0 -0 -0 -0 -0 -0 -0 -0 -0 -0 -0 -0 -0 -0 -0 -0 -0 -0 -0 -0 -0 -0 -0 -0 -0 -0 -0 -0 -0 -0 -0 -0 -0 -0 -0 -0 -0 -0 -0 -0 -0 -0 -0 -0 -0 -0
-1 -0 -0 -0 -0 -0 -0 -0 -0 -0 -0 -0 -0 -0 -0 -0 -0 -0 -0 -0 -0 -0 -0 -0 -0 -0 -0 -0 -0 -0 -0 -0 -0 -0 -0 -0 -0 -0 -0 -0 -0 -0 -0 -0 -0 -0 -0 -0 -0 -0 -0 -0 -0 -0
-0 -0 -0 -0 -0 -0 -0 -0 -0 -0 -0 -0 -0 -0 -0 -0 -0 -0 -0 -0 -0 -0 -0 -0 -0 -0 -0 -0 -0 -0 -0 -0 -0 -0 -0 -0 -0 -0 -0 -0 -0 -0 -0 -0 -0 -0 -0 -0 -0 -0 -0 -0 -0 -0
-0 -0 -0 -0 -0 -0 -0 -0 -0 -0 -0 -0 -0 -0 -0 -0 -0 -0 -0 -0 -0 -0 -0 -0 -0 -0 -0 -0 -0 -0 -0 -0 -0 -0 -0 -0 -0 -0 -0 -0 -0 -0 -0 -0 -0 -0 -0 -0 -0 -0 -0 -0 -0 -0
-0 -0 -0 -0 -0 -0 -0 -0 -0 -0 -0 -0 -0 -0 -0 -0 -0 -0 -0 -0 -0 -0 -0 -0 -0 -0 -0 -0 -0 -0 -0 -0 -0 -0 -0 -0 -0 -0 -0 -0 -0 -0 -0 -0 -0 -0 -0 -0 -0 -0 -0 -0 -0 -0
-0 -0 -0 -0 -0 -0 -0 -0 -0 -0 -0 -0 -0 -0 -0 -0 -0 -0 -0 -0 -0 -0 -0 -0 -0 -0 -0 -0 -0 -0 -0 -0 -0 -0 -0 -0 -0 -0 -0 -0 -0 -0 -0 -0 -0 -0 -0 -0 -0 -0 -0 -0 -1 -0
-0 -0 -0 -0 -0 -0 -0 -0 -0 -0 -0 -0 -0 -0 -0 -0 -0 -0 -0 -0 -0 -0 -0 -0 -0 -0 -0 -0 -0 -0 -0 -0 -0 -0 -0 -0 -0 -0 -0 -0 -0 -0 -0 -0 -0 -0 -0 -0 -0 -0 -0 -0 -0 -0
-0 -0 -0 -0 -0 -0 -0 -0 -0 -0 -0 -0 -0 -0 -0 -0 -0 -0 -0 -0 -0 -0 -0 -0 -0 -0 -0 -0 -0 -0 -0 -0 -0 -0 -0 -0 -0 -0 -0 -0 -0 -0 -0 -0 -0 -0 -0 -0 -0 -0 -0 -0 -0 -0
-0 -0 -0 -0 -0 -0 -0 -0 -0 -0 -0 -0 -0 -0 -0 -0 -0 -0 -0 -0 -0 -0 -0 -0 -0 -0 -0 -0 -0 -0 -0 -0 -0 -0 -0 -0 -0 -0 -0 -0 -0 -0 -0 -0 -0 -0 -0 -0 -0 -0 -0 -0 -0 -0
-0 -0 -0 -0 -0 -0 -0 -0 -0 -0 -0 -0 -0 -0 -0 -0 -0 -0 -0 -0 -0 -0 -0 -0 -0 -0 -0 -0 -0 -0 -0 -0 -0 -0 -0 -0 -0 -0 -0 -0 -0 -0 -0 -0 -0 -0 -0 -0 -0 -0 -0 -0 -0 -0
-0 -0 -0 -0 -0 -0 -0 -0 -0 -0 -0 -0 -0 -0 -0 -0 -0 -0 -0 -0 -0 -0 -0 -0 -0 -0 -0 -0 -0 -0 -0 -0 -0 -0 -0 -0 -0 -0 -0 -0 -0 -0 -0 -0 -0 -0 -0 -0 -0 -0 -0 -0 -0 -0
-0 -0 -0 -0 -0 -0 -0 -0 -0 -0 -0 -0 -0 -0 -0 -0 -0 -0 -0 -0 -0 -0 -0 -0 -0 -0 -0 -0 -0 -0 -0 -0 -0 -0 -0 -0 -0 -0 -0 -0 -0 -0 -0 -0 -0 -0 -0 -0 -0 -0 -0 -0 -0 -0
-0 -0 -0 -0 -0 -0 -0 -0 -0 -0 -0 -0 -0 -0 -0 -0 -0 -0 -0 -0 -0 -0 -0 -0 -0 -0 -0 -0 -0 -0 -0 -0 -0 -0 -0 -0 -0 -0 -0 -0 -0 -0 -0 -0 -0 -0 -0 -0 -0 -0 -0 -0 -0 -0
-0 -0 -0 -0 -0 -0 -0 -0 -0 -0 -0 -0 -0 -0 -0 -0 -0 -0 -0 -0 -0 -0 -0 -0 -0 -0 -0 -0 -0 -0 -0 -0 -0 -0 -0 -0 -0 -0 -0 -0 -0 -0 -0 -0 -0 -0 -0 -0 -0 -0 -0 -0 -0 -0
-0 -0 -0 -0 -0 -0 -0 -0 -0 -0 -0 -0 -0 -0 -0 -0 -0 -0 -0 -0 -0 -0 -0 -0 -0 -0 -0 -0 -0 -0 -0 -0 -0 -0 -0 -0 -0 -0 -0 -0 -0 -0 -0 -0 -0 -0 -0 -0 -0 -0 -0 -0 -0 -0
-0 -0 -0 -0 -0 -0 -0 -0 -0 -0 -0 -0 -0 -0 -0 -0 -0 -0 -0 -0 -0 -0 -0 -0 -0 -0 -0 -0 -0 -0 -0 -0 -0 -0 -0 -0 -0 -0 -0 -0 -0 -0 -0 -0 -0 -0 -0 -0 -0 -0 -0 -0 -0 -0
-0 -0 -0 -0 -0 -0 -0 -0 -0 -0 -0 -0 -0 -0 -0 -0 -0 -0 -0 -0 -0 -0 -0 -0 -0 -0 -0 -0 -0 -0 -0 -0 -0 -0 -0 -0 -0 -0 -0 -0 -0 -0 -0 -0 -0 -0 -0 -0 -0 -0 -0 -0 -0 -0
-0 -0 -0 -0 -0 -0 -0 -0 -0 -0 -0 -0 -0 -0 -0 -0 -0 -0 -0 -0 -0 -0 -0 -0 -0 -0 -0 -0 -0 -0 -0 -0 -0 -0 -0 -0 -0 -0 -0 -0 -0 -0 -0 -0 -0 -0 -0 -0 -0 -0 -0 -0 -0 -0
-0 -0 -0 -0 -0 -0 -0 -0 -0 -0 -0 -0 -0 -0 -0 -0 -0 -0 -0 -0 -0 -0 -0 -0 -0 -0 -0 -0 -0 -0 -0 -0 -0 -0 -0 -1 -1 -2 -2 -0 -0 -0 -0 -0 -0 -0 -0 -0 -0 -0 -0 -0 -0 -0
Wind_Speed
35 33 31 29 28 28 27 26 25 24 23 20 20 20 19 18 20 17 16 14 14 16 13 11 11 12 12 12 16 12 15 18 19 23 26 26 27 25 27 25 27 29 31 33 31 38 43 18 21 30 25 22 25 29
35 34 34 32 31 30 30 29 27 25 24 23 22 19 17 17 14 15 18 15 14 13 13 11 10 12 12 13 12 11 17 14 15 19 20 20 24 22 25 32 22 31 27 29 28 30 24 15 24 21 24 26 28 31
37 36 36 33 31 30 31 30 29 25 23 23 22 19 20 18 17 14 15 14 12 11 12 12 13 13 12 14 15 16 16 14 15 16 17 20 24 21 27 29 27 24 23 29 30 26 24 21 23 25 25 28 30 31
36 36 35 35 29 30 29 28 27 25 23 22 20 16 18 15 13 13 14 14 12 11 14 15 13 14 16 16 15 15 12 15 15 18 21 22 26 22 27 26 27 25 24 28 31 30 26 25 27 25 26 29 31 31
34 32 30 29 17 20 25 26 26 24 22 20 19 16 15 13 9 8 10 14 13 14 15 13 12 15 17 16 14 14 13 17 19 22 24 25 24 24 26 27 30 26 29 32 36 30 27 28 21 24 29 31 30 32
35 32 30 26 21 11 16 22 23 24 22 19 17 16 13 6 7 11 14 15 12 13 13 14 14 15 14 13 13 13 13 15 16 18 22 22 20 21 26 31 27 25 26 28 28 26 24 22 23 27 29 29 30 32
35 34 31 29 25 17 7 14 19 19 19 15 11 7 7 9 11 15 17 14 11 14 15 15 16 16 15 14 15 15 14 16 17 20 23 23 24 22 27 34 29 26 25 25 25 26 25 25 27 28 29 30 30 31
36 34 33 31 28 21 13 6 11 14 12 13 10 8 5 7 9 11 13 11 12 13 16 17 17 16 14 16 18 16 17 18 20 22 22 24 23 25 32 28 26 25 24 24 25 24 25 27 27 28 29 30 31 29
36 35 33 32 31 27 21 16 10 12 12 10 11 10 12 13 14 14 13 13 13 15 18 18 19 21 15 16 16 16 18 21 20 22 21 19 21 25 23 23 23 23 23 25 26 25 26 26 27 27 28 27 28 28
35 35 33 32 32 31 29 22 13 16 17 11 16 15 15 15 14 16 16 16 17 19 18 19 16 17 15 14 15 16 17 18 19 17 15 16 20 17 20 21 21 23 24 26 27 26 27 26 27 28 28 28 29 30
35 35 33 32 32 30 28 25 17 15 14 4 15 16 18 17 18 19 20 21 21 22 22 22 23 17 18 16 15 17 15 15 18 16 13 16 20 21 20 20 20 21 22 23 23 24 26 27 29 30 31 31 31 32
37 35 32 31 32 30 27 25 22 18 17 16 13 14 16 18 18 19 19 19 19 19 16 16 15 16 13 14 13 12 15 15 18 14 16 20 21 20 19 19 20 21 23 25 26 27 28 29 30 31 32 33 33 33
37 36 32 31 32 30 28 26 24 21 18 17 17 16 17 17 17 16 15 15 15 13 12 12 12 12 12 12 13 13 15 17 15 16 20 22 20 19 20 21 22 23 24 26 28 29 30 32 32 32 34 34 35 35
35 37 33 32 33 31 30 28 26 22 19 19 18 19 18 16 17 16 17 16 14 13 10 11 12 13 12 11 13 15 15 15 20 21 23 20 18 20 21 23 25 27 28 30 32 33 34 35 35 35 35 35 36 37
34 35 25 33 34 32 31 29 26 20 19 20 19 20 18 17 17 17 16 15 15 13 12 13 15 15 15 16 16 17 18 20 22 23 20 17 19 23 25 27 29 31 32 34 34 34 34 35 35 36 35 34 34 35
35 27 23 37 34 32 30 27 22 19 19 20 20 21 20 19 19 18 18 17 17 15 15 16 16 18 19 19 19 20 22 24 22 19 18 21 24 27 29 30 31 31 32 32 32 33 34 34 34 34 34 33 31 30
30 24 33 34 32 29 27 21 20 19 20 21 22 21 23 22 21 20 19 19 19 18 19 18 19 20 18 20 21 20 22 21 18 20 22 25 28 29 30 30 31 31 32 32 33 33 32 32 31 31 30 30 27 28
26 29 30 31 30 23 20 19 16 17 19 21 23 23 22 21 21 20 19 20 19 19 19 21 19 21 22 23 23 20 19 19 22 24 26 26 28 28 28 30 30 31 31 32 31 31 30 29 27 27 27 27 29 30
28 29 31 31 26 21 19 18 17 16 17 18 19 20 20 20 19 19 19 19 18 18 18 20 22 22 22 20 19 19 21 23 24 26 26 26 25 27 29 30 30 31 31 32 32 30 30 26 25 26 27 28 30 31
27 26 32 28 24 20 18 18 17 15 16 17 17 18 18 19 18 18 18 18 18 18 19 20 20 19 19 18 19 21 21 22 24 27 26 24 26 28 29 30 32 34 34 32 31 33 33 30 30 31 31 31 31 31
28 27 27 25 23 22 19 19 18 17 16 16 16 17 17 17 17 18 18 19 18 19 19 18 17 17 18 19 20 20 21 21 23 23 25 28 28 29 29 30 31 31 31 31 34 32 32 30 30 30 29 27 26 25
27 28 25 25 23 21 20 21 19 19 18 17 16 17 17 16 16 17 19 17 18 17 17 17 18 19 20 20 20 20 21 21 22 23 25 26 28 30 30 31 30 29 29 31 32 31 30 29 29 27 27 28 29 29
25 25 25 26 23 24 21 22 20 21 19 18 17 16 17 17 17 18 16 16 16 16 16 17 19 19 20 19 20 20 20 22 24 25 26 27 28 29 29 30 29 28 30 30 29 28 28 30 30 28 27 29 30 29
25 24 26 25 26 24 22 23 21 21 19 19 19 17 17 18 19 16 16 16 15 15 17 19 20 20 18 19 20 22 23 23 25 26 26 27 30 30 30 30 29 24 23 26 29 28 26 26 27 27 26 23 16 12
24 24 25 26 26 27 25 23 22 21 20 19 19 18 17 18 16 16 16 14 12 14 16 18 19 19 20 21 22 23 23 24 26 29 29 27 29 31 31 31 30 28 29 28 28 27 26 25 23 10 7 9 9 10
23 23 25 27 27 27 25 23 21 20 20 20 18 18 18 17 16 15 15 12 12 13 16 18 19 20 20 21 24 25 25 26 26 27 29 27 29 29 31 33 33 33 26 27 25 24 19 7 9 11 10 10 13 13
22 23 24 24 25 25 23 21 19 18 17 17 18 18 17 14 14 15 14 12 12 15 17 18 19 20 23 25 25 24 26 26 24 26 32 32 26 22 24 30 33 25 28 22 19 14 8 10 9 10 10 10 7 5
22 23 28 29 26 23 23 22 19 17 16 16 18 16 15 15 15 15 14 14 15 17 19 19 20 21 24 25 26 27 28 27 29 30 29 26 23 26 27 31 33 30 32 14 23 17 6 8 10 7 8 7 5 3
24 26 27 29 25 22 19 18 18 16 15 17 18 18 17 17 17 16 15 16 17 18 20 22 23 25 25 25 24 25 26 26 29 30 30 30 30 29 30 29 25 13 10 19 23 23 19 18 10 1 4 2 2 2
26 26 27 25 23 21 18 17 17 17 16 17 20 21 20 19 19 18 17 17 18 20 21 22 24 25 26 27 28 27 25 23 24 28 31 30 29 23 21 19 18 6 22 21 20 20 20 21 19 17 17 12 8 4
25 24 24 22 21 18 17 18 17 16 17 18 19 19 21 21 20 17 16 16 17 19 21 23 24 24 26 27 26 28 28 25 28 31 31 31 29 23 20 23 26 27 22 23 21 20 19 19 17 15 15 13 11 9
24 22 22 21 19 17 18 18 18 17 17 18 18 18 19 18 18 17 16 15 16 19 23 24 25 27 26 24 24 24 28 30 30 30 30 30 30 29 28 31 29 22 28 24 21 21 20 19 17 18 17 13 12 10
22 20 19 18 18 17 18 20 17 17 17 17 18 18 18 17 17 18 17 15 16 20 23 22 25 26 25 25 27 27 28 29 29 29 29 29 29 28 29 28 25 25 26 23 22 21 20 19 19 20 19 17 15 15
Wind_Direction
350 346 340 339 340 337 330 321 318 325 323 314 302 293 282 285 262 260 266 274 284 276 268 278 290 272 277 278 270 279 287 290 288 284 283 283 283 284 286 289 288 285 286 286 287 287 286 294 299 293 302 308 307 309
348 345 346 341 337 335 334 331 325 325 315 316 298 293 290 283 282 270 263 268 279 279 274 287 298 298 298 298 289 276 296 295 296 292 292 295 289 291 289 286 292 287 289 292 291 295 305 294 305 305 308 307 308 309
349 348 353 341 339 335 336 336 335 327 317 314 301 285 278 275 275 276 266 253 269 274 275 275 278 296 304 300 299 288 294 304 300 306 300 298 293 296 290 289 294 296 302 295 298 299 298 294 301 304 305 308 311 311
344 346 347 351 330 335 332 332 333 329 308 300 299 294 278 284 275 271 265 258 268 269 278 271 290 287 298 302 303 306 306 303 305 301 298 297 293 299 293 296 295 301 304 302 298 299 300 296 300 304 306 310 311 313
338 336 333 330 314 307 319 324 323 318 307 295 285 281 287 274 300 288 280 262 269 274 278 281 288 296 302 303 301 303 305 299 298 294 294 293 297 298 297 298 294 298 299 295 295 303 299 305 305 308 309 311 312 313
335 332 330 325 315 296 292 310 313 313 299 291 282 271 278 299 315 276 270 275 280 280 293 284 297 297 308 312 312 308 306 304 302 300 296 301 305 301 297 294 302 305 304 307 301 308 309 309 311 314 313 313 314 314
332 330 327 326 320 305 275 288 306 313 326 323 346 17 316 310 294 282 276 282 286 290 288 287 292 300 304 307 308 308 315 309 305 300 295 299 301 298 297 294 306 310 309 308 309 308 304 310 308 314 314 315 316 316
330 328 328 326 324 313 290 242 252 275 304 358 2 12 350 297 314 308 312 314 311 298 292 288 293 299 311 301 299 310 305 303 302 299 302 298 303 299 296 301 305 308 309 311 312 313 311 313 315 315 315 315 315 317
330 329 328 327 326 319 303 276 210 190 10 323 341 306 294 297 299 307 320 320 318 301 288 292 290 291 309 306 311 309 305 298 308 299 299 303 301 299 306 308 310 313 313 312 314 316 316 315 316 317 318 318 318 319
326 328 327 327 328 325 322 300 105 104 80 22 279 269 290 294 301 303 310 301 296 294 297 291 298 297 307 306 306 308 307 303 306 307 317 308 305 316 316 317 317 316 316 316 315 315 317 318 319 319 318 318 317 317
327 325 324 325 328 329 332 338 26 42 28 114 223 204 213 256 242 223 222 237 249 257 264 266 259 284 280 293 300 298 312 316 312 319 318 318 313 316 323 322 324 325 325 325 325 323 322 320 318 318 317 317 316 316
333 327 325 325 327 326 326 326 326 328 324 323 341 350 300 273 272 259 260 257 258 268 282 284 292 293 304 307 313 320 314 319 315 329 320 316 320 325 328 328 328 328 328 326 325 322 321 320 319 317 316 315 315 315
338 331 326 324 324 323 321 318 314 319 318 315 317 316 303 296 298 298 300 305 301 320 324 326 325 323 326 322 324 325 319 315 330 321 317 319 326 328 329 329 328 328 327 325 323 322 321 319 318 317 315 315 314 312
343 332 337 323 320 319 317 315 311 309 311 304 305 298 304 308 306 306 300 309 314 325 336 337 333 331 333 331 330 323 325 328 316 314 317 327 332 331 331 330 328 326 325 324 323 322 320 318 316 315 314 313 311 309
348 341 355 334 318 316 313 312 314 315 304 299 299 297 298 306 308 310 314 317 319 321 324 322 322 321 321 317 321 321 320 315 319 319 328 336 335 332 329 328 326 325 324 322 322 321 320 319 318 316 317 316 314 313
348 352 356 322 320 319 314 312 315 315 306 297 296 295 305 302 301 303 303 306 312 314 318 317 316 314 309 313 311 310 311 311 319 327 333 331 328 328 327 326 326 326 325 325 324 323 322 321 321 320 319 318 318 318
2 8 347 328 325 330 331 330 316 308 301 298 296 300 296 298 301 302 302 302 306 304 301 308 305 306 316 311 309 315 313 320 327 328 327 327 327 327 328 329 329 328 327 327 326 326 326 326 326 325 324 324 324 322
13 4 358 347 336 348 346 345 342 325 309 303 297 300 302 305 303 303 306 306 304 301 302 302 310 303 304 305 308 316 322 325 325 326 327 329 330 331 332 331 331 330 329 329 330 329 331 332 333 332 331 330 327 324
13 9 358 353 359 1 354 349 345 342 333 323 316 310 307 307 312 311 311 311 311 310 309 308 305 305 307 314 317 320 323 324 325 327 329 332 335 335 334 333 333 332 330 329 330 332 332 335 334 333 333 331 327 325
15 16 359 1 4 3 359 353 350 351 344 339 332 325 319 314 314 314 314 314 312 310 308 307 308 314 317 322 325 324 327 329 330 330 333 338 339 337 337 336 331 327 325 331 333 328 331 335 335 334 333 332 330 329
14 17 16 14 6 1 3 357 352 351 349 343 339 335 332 328 322 318 316 317 314 312 310 316 319 323 327 327 328 330 331 335 334 336 335 334 337 338 338 337 336 333 336 337 330 336 336 339 339 338 338 339 338 335
14 15 23 23 17 7 3 1 355 347 343 342 340 332 331 332 329 325 319 320 320 320 321 322 323 324 326 329 331 334 334 336 338 338 337 336 338 338 338 339 341 342 342 339 338 340 342 343 342 342 342 340 338 337
18 20 20 17 17 8 4 355 351 346 342 341 344 342 335 331 329 326 329 329 327 329 330 329 327 328 328 332 334 337 339 337 335 336 336 337 337 338 339 339 343 346 344 345 346 347 346 345 344 344 344 342 342 343
16 16 15 16 11 9 4 355 351 344 343 340 336 339 338 332 327 331 329 331 332 335 333 331 331 331 336 336 334 333 334 334 330 332 336 339 335 335 339 341 345 356 356 352 350 351 354 353 351 350 352 354 356 350
10 9 11 8 9 1 0 358 354 346 337 335 333 332 336 332 336 336 335 341 345 342 338 338 339 337 335 333 331 331 334 334 329 324 322 337 338 335 340 344 348 353 352 356 357 358 358 0 3 359 304 293 296 297
8 8 7 3 1 359 356 355 356 352 341 331 332 333 335 338 340 343 346 354 355 351 346 343 341 337 336 333 324 323 326 331 333 333 327 339 336 339 340 342 345 346 5 3 2 3 6 334 295 290 295 295 287 286
5 3 3 4 359 355 353 354 356 355 350 338 326 329 333 345 347 346 352 355 357 347 341 336 334 331 326 323 328 335 334 334 341 337 304 310 340 355 352 345 344 1 358 5 10 12 301 291 295 293 293 292 298 314
2 0 352 353 355 355 351 350 353 357 357 345 326 328 335 340 342 345 350 347 344 340 335 334 335 331 325 325 325 324 327 332 327 325 329 338 352 345 346 331 318 297 313 18 11 289 290 282 284 290 294 303 323 339
356 355 354 350 354 358 360 359 355 2 2 342 324 320 324 326 330 338 343 340 340 338 334 330 329 325 326 327 332 332 333 336 329 320 319 314 311 312 311 301 294 279 19 19 295 299 292 293 280 352 49 13 344 38
351 353 350 351 352 355 1 2 355 354 351 333 313 307 315 319 322 330 334 336 337 336 335 334 331 328 325 322 318 323 334 340 343 333 313 300 299 281 283 284 285 307 13 18 288 291 296 302 300 300 303 299 299 309
353 355 353 355 354 1 3 0 357 0 347 328 315 314 310 310 320 339 345 348 348 345 339 335 332 334 328 323 322 313 310 324 324 315 314 308 288 276 278 283 315 357 15 295 288 286 288 290 290 291 294 297 297 300
353 355 355 356 360 4 1 360 357 356 341 328 325 317 312 322 332 342 357 2 360 351 341 338 335 329 329 328 326 322 309 298 298 300 297 298 294 291 292 318 310 11 339 301 294 293 295 294 292 299 301 295 296 295
357 360 2 3 4 4 359 352 358 353 340 334 327 321 326 333 343 349 6 17 15 2 352 352 346 337 329 321 309 306 304 299 293 293 296 295 296 296 309 311 302 1 320 306 308 306 307 305 307 313 315 311 308 310